GEFSNGP_con_maxscp_156.txt.gz
SCP
0 0 0 0 0 0 1 1 1 1 3 4 5 6 6 7 7 7 7 9 10 10 8 5 3 2 2 2 2 2 2 1 1 2 1 1 1 1 1 1 1 1 1 1
0 0 0 0 0 0 1 1 1 2 3 4 5 5 5 7 8 10 13 15 14 11 6 4 3 3 3 2 2 2 2 1 1 2 1 1 1 1 1 1 1 1 1 1
0 0 0 0 0 0 0 1 2 3 4 5 5 5 5 7 10 13 15 15 13 8 5 3 4 3 3 2 2 2 1 1 1 2 2 2 1 1 1 1 1 1 1 1
0 0 0 0 0 0 1 2 3 4 5 6 6 6 6 8 9 10 9 8 6 4 4 4 4 3 3 2 1 1 1 1 1 2 2 2 2 1 1 1 1 1 1 0
0 0 0 0 0 1 2 3 4 5 6 6 6 6 6 6 6 5 4 4 4 4 5 5 4 3 2 1 1 1 1 1 2 2 2 2 2 2 1 1 1 1 1 0
0 0 0 1 1 1 2 3 5 6 6 6 6 6 6 5 4 4 3 3 3 4 5 4 2 1 1 1 1 1 1 1 2 2 3 2 2 2 1 1 1 1 1 1
0 0 1 1 1 1 2 3 5 5 5 5 5 6 6 5 4 4 3 2 3 4 4 3 1 1 0 0 0 0 0 1 1 2 3 3 2 2 2 1 1 1 0 0
0 0 1 1 1 1 2 4 5 5 6 6 6 7 7 6 4 3 3 2 2 2 2 1 1 0 0 0 0 0 0 0 0 1 1 2 2 2 2 2 1 1 1 0
1 1 1 1 1 2 2 4 6 7 8 8 8 8 7 5 4 4 2 1 1 1 1 1 0 0 0 0 0 0 0 0 0 0 0 1 1 2 2 2 2 1 1 1
2 2 1 2 2 2 3 4 6 8 9 8 7 5 4 4 4 4 3 1 1 1 1 1 1 0 0 0 0 0 0 0 0 0 0 0 0 1 1 1 1 1 1 1
2 2 2 2 3 3 3 4 7 9 9 7 6 4 4 4 4 3 2 1 1 1 1 1 1 0 0 1 1 1 1 1 0 0 0 0 0 0 0 0 0 1 1 1
2 2 2 2 3 3 4 5 8 10 9 8 7 6 5 4 4 3 2 1 1 0 0 0 0 0 0 1 1 1 1 1 1 0 0 0 0 0 0 0 0 0 0 0
2 2 2 2 3 3 3 5 7 9 8 8 7 6 6 5 4 3 2 1 1 1 0 0 0 0 0 0 1 1 1 1 0 0 0 0 0 0 0 0 0 0 0 0
3 3 3 3 2 2 2 3 4 5 5 5 5 5 5 4 4 3 2 2 1 1 1 0 0 0 0 0 0 0 1 1 0 0 0 0 0 0 0 0 0 0 0 0
3 3 3 2 2 1 2 2 3 3 3 3 3 3 3 3 2 2 1 1 1 1 0 0 0 0 0 0 0 0 0 0 0 0 0 0 0 0 0 0 0 0 0 0
3 2 2 2 1 1 1 2 2 2 2 1 1 1 1 1 1 0 0 0 0 0 0 0 0 0 0 0 0 0 0 0 0 0 0 0 0 0 0 0 0 0 0 0
1 1 1 1 1 1 1 1 1 1 1 0 0 0 0 0 0 0 0 0 0 0 0 0 0 0 0 0 0 0 0 0 0 0 0 0 0 0 0 0 0 0 0 0
1 0 1 1 1 1 1 0 0 0 0 0 0 0 0 0 0 0 0 0 0 0 0 0 0 0 0 0 0 0 0 0 0 0 0 0 0 0 0 0 0 0 0 0
0 0 0 0 1 1 0 0 0 0 0 0 0 0 0 0 0 0 0 0 0 0 0 0 0 0 0 0 0 0 0 0 0 0 0 0 0 0 0 0 0 0 0 0
0 0 0 0 0 0 0 0 0 0 0 0 0 0 0 0 0 0 0 0 0 0 0 0 -0 -0 0 0 0 0 0 0 0 0 -0 -0 -0 -0 0 0 0 0 0 0
0 0 0 0 0 0 0 0 0 0 0 0 0 0 0 0 0 0 0 0 0 0 0 0 0 -0 0 0 0 0 0 0 0 0 0 0 0 0 0 0 0 0 0 0
0 0 0 0 0 0 0 0 0 0 0 0 0 0 0 0 0 0 0 0 0 0 0 0 0 0 0 0 0 0 0 0 0 0 0 0 0 0 0 0 0 0 0 0
1 0 0 0 0 0 0 0 0 0 0 0 0 0 0 0 0 0 0 0 0 0 0 0 0 0 0 0 0 0 0 0 0 0 0 0 0 0 0 0 0 0 0 0
0 0 0 0 0 0 0 0 0 0 0 0 0 0 0 0 0 0 0 0 0 0 0 0 0 0 0 0 0 0 0 0 0 0 0 0 0 0 0 0 0 0 0 0
0 0 0 0 0 0 0 0 0 0 0 0 0 0 0 0 0 0 0 0 0 0 0 0 0 0 0 0 0 0 0 0 0 0 0 0 0 0 0 0 0 0 0 0
0 0 0 0 0 0 0 0 0 0 0 0 0 0 0 0 0 0 0 0 0 0 0 0 0 0 0 0 0 0 0 0 0 0 0 0 0 0 0 0 0 0 0 0
0 0 0 0 0 0 0 0 0 0 0 0 0 0 0 0 0 0 0 0 0 0 0 0 0 0 0 0 0 0 0 0 0 0 0 0 0 0 0 0 0 0 0 0

GEFSNGP_con_maxscp_162.txt.gz
SCP
0 0 0 0 0 0 0 0 0 0 0 1 1 2 1 1 2 2 3 2 2 2 2 2 2 2 2 2 2 2 2 1 1 1 1 1 1 1 1 1 1 1 1 1
0 0 0 0 0 0 0 0 0 0 0 1 1 2 1 1 2 2 3 2 2 2 2 2 2 2 2 2 2 2 2 1 1 1 1 1 1 1 1 1 1 1 1 1
0 0 0 0 0 0 0 0 0 0 0 1 1 2 1 1 2 2 3 2 2 1 1 1 1 2 3 3 3 3 2 1 1 1 1 1 1 1 1 1 1 1 1 1
0 0 0 0 0 0 0 0 0 0 1 1 2 2 2 1 2 2 2 2 1 1 1 1 2 3 4 4 3 2 1 1 1 1 1 1 1 1 1 1 1 1 1 1
0 0 0 0 0 0 0 0 1 1 1 1 2 2 1 1 2 2 2 2 1 1 1 1 2 4 5 4 3 1 1 1 1 1 1 1 1 1 1 1 1 1 1 0
0 0 0 0 0 0 0 0 1 1 1 2 2 2 1 2 3 3 3 2 1 1 1 1 2 4 5 4 2 1 1 1 1 1 1 1 1 1 1 1 1 1 1 0
0 0 0 0 0 0 0 0 1 1 1 2 2 2 1 2 3 3 2 2 1 1 0 1 2 3 3 3 1 1 0 0 0 1 1 1 2 2 2 2 1 1 1 1
0 0 0 0 0 0 0 1 1 2 2 2 2 2 2 3 3 2 2 1 1 1 1 0 1 1 1 1 0 0 0 0 0 0 0 1 1 2 2 2 2 2 1 1
0 0 0 0 0 0 0 1 2 2 3 3 2 2 2 2 2 1 1 1 2 1 1 0 0 0 0 0 0 0 0 0 0 0 0 0 0 1 2 2 2 2 2 1
1 1 0 0 0 0 1 1 2 3 3 3 4 3 2 1 1 1 1 1 1 1 1 0 0 0 0 0 0 0 0 0 0 0 0 0 0 0 1 1 2 2 2 2
1 1 1 1 1 0 1 1 1 2 3 3 3 3 2 1 1 0 0 0 0 0 0 0 0 0 0 0 0 0 0 0 0 0 0 0 0 0 0 0 1 1 1 1
1 0 0 0 0 0 0 1 1 1 2 2 2 2 2 1 1 0 1 1 0 0 0 0 0 0 0 0 0 0 0 0 0 0 0 0 0 0 0 0 0 0 0 0
0 0 0 0 0 0 0 1 1 1 1 1 1 1 1 1 0 1 1 1 1 0 0 0 0 0 0 0 0 0 0 0 0 0 0 0 0 0 0 0 0 0 0 0
0 0 0 0 0 0 0 1 1 1 1 1 1 0 0 0 1 1 1 1 1 1 0 0 0 0 0 0 0 0 0 0 0 0 0 0 0 0 0 0 0 0 0 0
0 0 0 0 0 0 1 1 0 0 0 0 0 0 0 0 1 1 1 1 1 1 1 0 0 0 0 0 0 0 0 0 0 0 0 0 0 0 0 0 0 0 0 0
0 0 0 0 1 1 0 0 0 0 0 0 0 0 0 1 1 1 1 1 1 1 0 0 0 0 0 0 0 0 0 0 0 0 0 0 0 0 0 0 0 0 0 0
0 0 0 1 1 0 0 0 0 0 0 0 0 0 1 1 1 1 1 1 1 0 0 0 0 0 0 0 0 0 0 0 0 0 0 0 0 0 0 0 0 0 0 0
0 0 0 0 0 0 0 0 0 0 0 0 0 0 1 1 1 1 0 0 0 0 0 0 0 0 0 0 0 0 0 0 0 0 0 0 0 0 0 0 0 0 0 0
0 0 0 0 0 0 0 0 0 0 0 0 0 0 0 0 0 0 0 0 0 0 0 0 0 0 0 0 0 0 0 0 0 0 0 0 0 0 0 0 0 0 0 0
0 0 0 0 0 0 0 0 0 0 0 0 0 0 0 0 0 0 0 0 0 0 0 0 0 0 0 0 0 0 0 0 0 0 0 0 0 0 0 0 0 0 0 0
0 0 0 0 0 0 0 0 0 0 0 0 0 0 0 0 0 0 0 0 0 0 0 0 0 0 0 0 0 0 0 0 0 0 0 0 0 0 0 0 0 0 0 0
0 0 0 0 0 0 0 0 0 0 0 0 0 0 0 0 0 0 0 0 0 0 0 0 0 0 0 0 0 0 0 0 0 0 0 0 0 0 0 0 0 0 0 0
0 0 0 0 0 0 0 0 0 0 0 0 0 0 0 0 0 0 0 0 0 0 0 0 0 0 0 0 0 0 0 0 0 0 0 0 0 0 0 0 0 0 0 0
0 0 0 0 0 0 0 0 0 0 0 0 0 0 0 0 0 0 0 0 0 0 0 0 0 0 0 0 0 0 0 0 0 0 0 0 0 0 0 0 0 0 0 0
0 0 0 0 0 0 0 0 0 0 0 0 0 0 0 0 0 0 0 0 0 0 0 0 0 0 0 0 0 -0 0 0 0 0 0 0 0 0 0 0 0 0 0 0
0 0 0 0 0 0 0 0 0 0 0 0 0 0 0 0 0 0 0 0 0 0 0 0 0 0 0 0 0 0 0 0 0 0 0 0 0 0 0 0 0 0 0 0
0 0 0 0 0 0 0 0 0 0 0 0 0 0 0 0 0 0 0 0 0 0 0 0 0 0 0 0 0 0 0 0 0 0 0 0 0 0 0 0 0 0 0 0

GEFSNGP_con_maxscp_168.txt.gz
SCP
0 0 0 0 0 0 0 0 0 0 0 1 2 2 2 2 2 3 4 4 5 5 5 5 4 4 3 3 3 3 4 4 3 3 3 3 3 3 3 3 2 2 2 2
0 0 0 0 0 0 0 0 0 0 0 1 2 2 2 2 2 3 3 4 5 5 6 5 5 4 4 3 3 3 4 3 3 3 3 3 3 3 2 2 2 2 2 2
0 0 0 0 0 0 0 0 0 0 0 1 1 2 2 3 2 2 3 3 4 6 6 5 5 4 4 4 3 3 3 3 2 2 2 2 2 2 2 2 2 3 3 3
0 0 0 0 0 0 0 0 0 1 1 1 1 2 2 2 2 2 2 3 4 5 6 6 5 5 4 4 4 4 3 3 2 2 2 2 2 2 3 3 3 3 3 3
0 0 0 0 0 0 0 1 1 1 1 1 2 2 2 2 2 2 3 3 4 5 5 5 5 5 4 4 4 3 3 2 2 2 2 2 2 3 3 3 3 3 3 3
0 0 0 0 1 1 1 1 1 1 1 2 2 2 2 2 2 3 3 3 4 4 5 5 5 4 4 3 3 3 2 1 1 1 2 2 2 3 3 4 3 3 3 2
0 0 0 1 1 1 1 1 1 2 2 2 2 2 3 3 4 3 3 4 4 4 4 4 4 4 3 3 3 2 1 1 1 1 1 2 2 3 3 3 3 3 2 2
0 0 1 1 1 1 2 2 2 2 2 2 2 3 3 4 4 4 4 4 4 4 4 4 3 3 3 3 3 2 1 0 0 0 1 1 1 2 2 2 2 2 2 2
1 1 1 1 2 2 3 3 3 3 3 3 3 3 3 3 3 3 3 4 4 3 3 3 2 2 2 2 2 2 1 1 0 0 0 0 1 1 1 1 2 2 2 2
1 1 2 2 2 2 3 3 3 2 3 3 3 3 3 3 3 2 3 3 4 3 3 2 2 2 2 2 2 2 1 1 1 0 0 0 0 1 1 1 1 1 1 1
2 2 2 2 2 2 2 3 3 2 2 2 3 3 3 2 2 2 3 3 3 3 2 2 2 1 1 1 1 2 1 1 1 0 0 0 0 0 0 0 0 1 1 1
2 2 2 2 2 2 2 3 3 3 2 2 2 2 2 2 2 2 3 3 2 2 2 2 2 1 1 1 1 1 1 1 1 0 0 0 0 0 0 0 0 0 0 0
2 2 2 2 2 2 2 2 3 3 3 2 2 2 2 2 2 2 2 2 1 1 1 1 2 2 1 1 1 1 1 1 1 0 0 0 0 0 0 0 0 0 0 0
2 2 2 3 2 2 2 2 3 3 3 2 2 2 2 2 2 1 1 1 1 1 1 1 2 2 1 1 1 1 1 1 1 0 0 0 0 0 0 0 0 0 0 0
2 2 2 2 2 2 2 2 3 3 2 2 2 2 1 1 1 1 1 1 1 1 1 2 2 2 1 1 1 1 1 1 1 1 0 0 0 0 0 0 0 0 0 0
1 1 1 1 2 2 2 3 3 2 2 2 1 1 1 1 1 1 1 1 1 1 1 2 2 1 1 1 1 1 1 1 1 0 0 0 0 0 0 0 0 0 0 0
1 1 1 1 2 2 3 2 2 2 1 1 1 1 1 1 1 1 1 1 1 1 1 1 1 1 1 1 1 1 1 1 0 0 0 0 0 0 0 0 0 0 0 0
1 1 1 1 2 2 2 2 1 1 1 1 1 1 1 1 1 1 1 1 1 1 1 1 1 1 1 1 1 1 1 1 0 0 0 0 0 0 0 0 0 0 0 0
1 1 1 1 1 1 1 1 1 1 1 0 0 0 0 0 1 1 1 1 1 1 1 1 1 1 1 1 1 1 1 1 0 0 0 0 0 0 0 0 0 0 0 0
1 1 1 1 1 1 1 1 1 1 0 0 0 0 0 0 0 0 0 0 0 1 1 1 1 1 1 1 1 1 1 0 0 0 0 0 0 0 0 0 0 0 0 0
1 1 1 1 1 1 1 1 0 0 0 0 0 0 0 0 0 0 0 0 0 0 0 0 0 0 0 0 0 0 0 0 0 0 0 0 0 0 0 0 0 0 0 0
1 1 1 1 1 1 1 0 0 0 0 0 0 0 0 0 0 0 0 0 0 0 0 0 0 0 0 0 0 0 0 0 0 0 0 0 0 0 0 0 0 0 0 0
1 1 1 1 1 1 1 0 0 0 0 0 0 0 0 0 0 0 0 0 0 0 0 0 0 0 0 0 0 0 0 0 0 0 0 0 0 0 0 0 0 0 0 0
1 1 1 1 1 1 1 1 0 0 0 0 0 0 0 0 0 0 0 0 0 0 0 0 0 0 0 0 0 0 0 0 0 0 0 0 0 0 0 0 0 0 0 0
1 1 1 1 1 1 1 0 0 0 0 0 0 0 0 0 0 0 0 0 0 0 0 0 0 0 0 0 0 0 0 0 0 0 0 0 0 0 0 0 0 0 0 0
1 1 1 1 1 1 1 0 0 0 0 0 0 0 0 0 0 0 0 0 0 0 0 0 0 0 0 0 0 0 0 0 0 0 0 0 0 0 0 0 0 0 0 0
1 1 2 2 1 1 1 0 0 0 0 0 0 0 0 0 0 0 0 0 0 0 0 0 0 0 0 0 0 0 0 0 0 0 0 0 0 0 0 0 0 0 0 0

GEFSNGP_con_maxscp_174.txt.gz
SCP
0 0 0 0 0 0 0 0 1 1 3 3 4 5 5 5 6 6 5 5 6 6 6 6 7 8 7 6 5 5 5 5 5 5 5 4 3 3 3 3 3 3 3 3
0 0 0 0 0 0 0 0 1 2 3 4 5 6 6 6 6 6 5 6 6 6 6 6 7 7 7 7 7 7 6 6 5 5 5 4 3 3 3 3 3 3 3 3
0 0 0 0 0 0 1 1 2 3 4 5 6 7 7 7 6 6 6 7 7 7 6 6 7 7 7 8 10 9 8 7 6 6 6 5 3 3 3 3 3 3 3 3
0 0 0 0 0 1 1 2 3 4 5 6 7 8 7 6 6 6 7 8 8 8 8 7 7 7 8 11 12 12 11 10 8 7 7 5 4 3 3 4 4 4 3 3
1 0 1 1 1 1 2 3 4 5 5 6 7 8 7 6 6 8 10 11 11 10 9 8 8 9 12 14 14 13 13 11 9 7 6 5 4 4 4 5 4 4 3 3
1 1 1 1 1 1 2 3 5 5 5 6 7 8 8 8 9 10 11 12 11 10 9 9 10 12 14 14 13 12 11 9 7 6 5 4 3 3 4 4 4 3 3 3
1 1 1 2 2 2 3 4 5 6 6 8 10 9 9 10 11 12 12 11 10 10 10 11 12 13 12 11 10 8 7 5 4 4 3 2 2 3 3 3 3 3 2 2
1 2 2 3 3 4 5 6 6 6 7 10 12 11 11 10 11 11 11 11 10 11 12 12 12 11 10 9 7 5 4 3 2 2 1 1 1 1 2 2 2 2 1 1
3 3 5 6 6 6 7 6 6 6 7 9 11 11 10 10 9 10 11 12 11 11 12 11 10 9 8 7 5 4 3 2 1 1 1 1 1 1 1 1 1 1 0 0
4 6 8 10 9 8 7 7 7 8 8 8 9 9 9 9 9 9 11 11 11 10 9 9 8 7 6 5 4 3 2 1 1 1 1 1 1 1 1 0 0 0 0 0
7 8 10 10 10 8 7 8 10 9 8 8 7 7 8 8 8 8 8 8 8 8 7 6 5 4 4 3 2 2 1 1 1 1 1 1 1 1 1 0 0 0 0 0
9 9 9 8 8 7 7 8 10 10 8 7 7 7 7 7 6 6 6 6 6 5 4 3 3 3 3 3 2 2 1 1 1 1 1 1 1 1 0 0 0 0 0 0
9 8 7 7 6 6 5 6 8 9 8 7 6 7 7 6 5 4 5 4 4 3 3 2 2 2 3 3 2 2 2 1 1 1 1 1 1 0 0 0 0 0 0 0
9 7 6 6 5 5 4 4 6 6 6 6 6 6 6 5 4 3 3 3 2 2 2 2 1 1 2 2 3 2 2 1 1 1 1 1 1 0 0 0 0 0 0 0
6 5 4 4 4 3 3 4 4 5 5 5 6 6 6 4 3 3 3 2 2 2 2 2 1 1 1 1 2 2 1 1 1 1 1 1 1 0 0 0 0 0 0 0
3 3 3 3 3 3 4 5 6 6 6 6 6 5 4 4 3 2 2 2 2 2 2 1 1 0 0 1 1 1 1 1 1 1 1 1 1 0 0 0 0 0 0 0
3 3 3 3 3 4 6 7 7 7 6 6 5 4 3 3 2 2 2 1 1 1 1 1 1 0 0 0 0 1 1 1 1 1 2 1 1 1 0 0 0 0 0 0
2 3 3 3 4 5 6 7 7 6 5 5 4 3 2 2 2 1 1 1 1 1 1 1 1 0 0 0 1 1 1 1 1 1 1 1 1 1 1 1 1 0 0 0
1 2 2 3 3 4 5 5 5 4 4 3 2 2 2 2 1 1 1 1 1 1 1 1 1 1 1 1 1 1 1 1 1 1 1 1 1 1 1 1 1 0 0 0
1 1 2 2 2 3 3 3 3 3 3 2 2 2 2 2 2 1 0 0 0 1 1 1 1 1 1 1 1 1 1 1 1 1 1 1 1 1 1 1 0 0 0 0
1 1 1 2 2 2 2 2 2 2 2 2 2 2 3 2 2 1 0 0 0 0 1 1 1 1 1 1 1 1 1 1 1 1 1 1 1 1 0 0 0 0 0 0
1 2 2 2 2 2 2 2 2 2 2 2 2 2 3 3 2 1 0 0 0 0 0 0 0 0 0 1 1 1 1 1 1 1 1 1 1 0 0 0 0 0 0 0
2 2 2 2 2 2 2 2 2 2 2 2 2 3 3 3 2 1 1 0 0 0 0 0 0 0 0 0 0 0 0 0 0 0 0 0 0 0 0 0 0 0 0 0
2 2 3 3 2 2 2 2 2 2 2 2 2 2 2 3 2 1 1 0 0 0 0 0 0 0 0 0 0 0 0 0 0 0 0 0 0 0 0 0 0 0 0 0
2 2 3 3 3 3 2 2 2 2 1 2 2 1 2 2 2 1 1 0 0 0 0 0 0 0 0 0 0 0 0 0 0 0 0 0 0 0 0 0 0 0 0 0
2 2 2 2 2 2 2 2 1 1 1 1 1 1 1 1 1 1 1 0 0 0 0 0 0 0 0 0 0 0 0 0 0 0 0 0 0 0 0 0 0 0 0 0
2 2 2 2 1 2 1 1 1 1 1 1 0 0 0 0 0 0 1 0 0 0 0 0 0 0 0 0 0 0 0 0 0 0 0 0 0 0 0 0 0 0 0 0

GEFSNGP_con_maxscp_180.txt.gz
SCP
0 0 0 0 0 0 0 0 0 1 1 2 3 3 4 4 4 5 5 5 5 4 4 4 4 4 3 3 2 2 1 1 1 1 1 1 1 1 1 1 1 1 1 1
0 0 0 0 1 1 0 0 1 1 2 2 4 5 4 5 5 5 5 6 6 6 5 4 4 4 3 3 2 2 1 1 1 2 2 2 2 2 2 1 1 1 1 1
0 0 0 0 1 1 1 1 1 2 3 5 7 8 6 6 6 6 7 8 9 9 7 5 4 4 4 3 3 2 2 2 2 2 2 2 2 2 2 1 1 1 2 2
0 0 0 1 1 2 2 2 3 3 5 8 10 11 10 8 7 8 10 13 14 12 8 6 5 5 5 4 4 3 3 3 3 3 2 2 2 2 1 1 1 1 1 1
0 0 0 1 1 2 2 3 4 5 7 9 10 11 11 10 10 12 16 18 17 13 8 6 5 5 6 5 5 4 3 3 3 2 2 1 1 1 1 0 0 1 1 1
0 0 1 1 2 2 2 3 4 5 7 8 9 9 10 11 14 17 19 20 16 11 7 5 5 5 6 6 6 5 4 3 2 2 1 1 1 1 0 0 0 0 0 0
0 1 1 2 2 2 2 4 6 7 7 8 8 8 9 12 15 17 17 16 12 8 6 4 4 5 5 6 6 5 4 2 2 1 1 0 0 0 0 0 0 0 0 0
0 1 1 2 2 2 3 6 8 10 10 10 10 10 10 12 12 12 11 9 7 5 4 3 4 4 5 5 5 4 3 2 1 1 0 0 0 0 0 0 0 0 0 0
1 2 2 3 3 3 5 8 10 10 9 10 10 10 11 11 10 8 7 6 5 4 4 4 3 4 4 3 3 3 2 2 1 0 0 0 0 0 0 0 0 0 0 0
3 3 4 5 5 5 7 8 8 7 7 8 9 9 9 9 9 8 7 7 6 6 5 4 3 3 2 2 2 2 1 1 0 0 0 0 0 0 0 0 0 0 0 0
5 5 5 5 6 7 7 8 7 6 6 7 7 7 7 7 7 7 7 7 7 6 5 3 2 2 1 1 1 1 1 0 0 0 0 0 0 0 0 0 0 0 0 0
5 5 5 4 5 6 6 6 7 7 7 7 7 6 6 6 6 5 5 5 5 4 3 2 1 1 1 1 1 1 1 1 1 0 0 0 0 0 0 0 0 0 0 0
3 4 4 4 4 5 5 7 9 10 9 7 6 6 6 5 4 3 3 3 3 2 1 1 1 0 0 0 0 1 1 1 1 0 0 0 0 0 0 0 0 0 0 0
2 3 4 5 4 4 6 8 10 10 8 6 5 5 4 4 3 2 2 2 2 2 1 0 0 0 0 0 0 0 0 0 0 0 0 0 0 1 1 0 0 0 0 0
2 2 3 4 4 5 6 8 8 7 5 4 3 3 3 2 2 2 1 1 1 1 1 0 0 0 0 0 0 0 0 0 0 0 0 0 0 1 1 0 0 0 0 0
1 1 1 2 3 5 6 6 5 4 3 3 2 2 2 2 1 1 1 1 1 1 0 0 0 0 0 0 0 0 0 0 0 0 0 0 1 1 1 0 0 0 0 0
1 1 1 1 2 3 5 5 4 3 2 2 1 1 1 1 1 1 1 1 0 0 0 0 0 0 0 0 0 0 0 0 0 0 0 0 1 1 1 0 0 0 0 0
0 0 0 0 1 2 3 4 3 3 3 2 1 1 1 1 1 1 1 0 0 0 0 0 0 0 0 0 0 0 0 0 0 0 0 0 1 1 0 0 0 0 0 0
0 0 1 1 1 2 2 2 2 3 4 3 2 1 1 1 1 1 1 0 0 0 0 0 0 0 0 0 0 0 0 0 0 0 0 0 0 0 0 0 0 0 0 0
0 0 1 1 1 1 2 2 2 3 4 4 2 1 1 1 0 0 0 0 0 0 0 0 0 0 0 0 0 0 0 0 0 0 0 0 0 0 0 0 0 0 0 0
0 0 0 1 1 2 2 2 2 3 5 4 2 1 1 0 0 0 0 0 0 0 0 0 0 0 0 0 0 0 0 0 0 0 0 0 0 0 0 0 0 0 0 0
0 0 0 1 2 2 2 1 2 3 5 4 2 1 0 0 0 0 0 0 0 0 0 0 0 0 0 0 0 0 0 0 0 0 0 0 0 0 0 0 0 0 0 0
1 1 1 1 2 2 1 1 2 3 4 3 1 0 0 0 0 0 0 0 0 0 0 0 0 0 0 0 0 0 0 0 0 0 0 0 0 0 0 0 0 0 0 0
1 1 1 1 1 1 1 1 2 3 3 2 1 0 0 0 0 1 0 0 0 0 0 0 0 0 0 0 0 0 0 0 0 0 0 0 0 0 0 0 0 0 0 0
0 1 1 1 1 1 1 2 3 3 2 1 0 0 0 0 0 1 0 0 0 0 0 0 0 0 0 0 0 0 0 0 0 0 0 0 0 0 0 0 0 0 0 0
0 0 1 1 1 1 1 2 3 2 1 0 0 0 0 0 0 0 0 0 0 0 0 0 0 0 0 0 0 0 0 0 0 0 0 0 0 0 0 0 0 0 0 0
0 0 0 0 1 1 1 2 2 1 1 0 0 0 0 0 0 0 0 0 0 0 0 0 0 0 0 0 0 0 0 0 0 0 0 0 0 0 0 0 0 0 0 0

GEFSNGP_con_maxscp_186.txt.gz
SCP
0 0 0 1 1 1 0 0 0 0 0 0 1 1 2 3 3 3 2 2 2 3 3 3 4 4 3 3 2 2 1 1 1 1 1 1 1 1 1 0 0 0 0 0
1 0 0 1 1 1 1 1 0 0 0 1 1 1 2 3 3 3 2 2 3 4 4 3 4 4 4 3 2 2 1 1 1 1 1 1 1 1 1 0 0 0 0 0
0 0 0 0 0 1 1 1 1 1 1 1 2 2 2 2 3 3 3 3 3 4 5 4 4 4 4 3 3 2 2 2 2 2 2 2 1 1 0 0 0 0 0 0
0 0 0 0 0 1 1 2 1 1 2 2 2 2 2 3 3 3 3 3 3 4 5 6 6 6 5 4 3 2 2 2 3 3 3 2 1 1 0 0 0 0 0 0
0 0 0 0 1 1 1 1 1 2 2 3 3 3 3 3 3 3 3 3 3 5 7 8 8 9 8 6 4 3 3 3 3 3 3 2 1 1 0 0 0 0 0 0
0 0 0 1 1 1 1 1 1 2 3 4 4 3 3 3 4 3 3 3 4 6 8 9 10 12 11 8 4 3 3 3 3 3 3 2 1 1 0 0 0 0 0 0
0 0 1 1 1 2 1 1 2 2 3 5 5 4 4 4 4 4 4 4 5 6 7 7 8 10 10 6 3 2 2 2 3 3 2 2 1 1 0 0 0 0 0 0
0 1 1 2 2 2 1 1 2 3 4 6 6 6 6 6 5 4 4 4 4 4 4 4 4 4 4 3 2 3 3 3 3 2 2 1 1 0 0 0 0 0 0 0
1 1 1 2 3 2 2 2 2 4 5 7 7 8 7 6 5 4 4 4 3 3 2 2 1 1 1 2 2 2 3 3 3 2 1 1 0 0 0 0 0 0 0 0
2 2 2 3 2 2 2 2 3 4 5 6 7 7 7 6 5 4 4 3 3 2 2 1 1 1 1 1 1 2 2 2 2 1 1 0 0 0 0 0 0 0 0 0
3 3 3 2 2 2 3 3 3 3 4 5 6 6 6 5 5 4 4 3 2 2 1 1 1 1 0 0 0 1 1 1 1 1 0 0 0 0 0 0 0 0 0 0
2 2 2 2 2 2 3 3 3 3 4 5 6 6 6 5 5 4 4 3 2 1 1 1 1 1 0 0 0 0 1 1 0 0 0 0 0 0 0 0 0 0 0 0
1 1 1 1 1 2 3 3 3 3 4 5 5 5 5 5 4 4 3 2 1 1 1 1 1 0 0 0 0 0 0 0 0 0 0 0 0 0 0 0 0 0 0 0
0 0 0 1 1 1 2 4 4 4 3 4 4 4 4 4 3 3 2 2 1 1 1 0 0 0 0 0 0 0 0 0 0 0 0 0 0 0 0 0 0 0 0 0
0 0 0 0 1 1 2 4 5 4 3 3 3 4 4 3 2 2 2 2 1 1 0 0 0 0 0 0 0 0 0 0 0 0 0 0 0 0 0 0 0 0 0 0
0 0 0 1 1 1 2 3 4 4 4 3 2 3 3 3 2 2 2 1 1 0 0 0 0 0 0 0 0 0 0 0 0 0 0 0 0 0 0 0 0 0 0 0
0 0 0 1 2 2 2 2 3 3 3 3 2 3 2 2 2 2 1 1 1 0 0 0 0 0 0 0 0 0 0 0 0 0 0 0 0 0 0 0 0 0 0 0
0 0 0 1 2 2 2 2 2 2 2 2 3 3 2 2 1 1 1 1 0 0 0 0 0 0 0 0 0 0 0 0 0 0 0 0 0 0 0 0 0 0 0 0
1 1 1 1 1 2 2 2 1 1 1 2 2 2 2 2 1 1 1 0 0 0 0 0 0 0 0 0 0 0 0 0 0 0 0 0 0 0 0 0 0 0 0 0
1 1 1 1 1 1 2 2 2 2 1 1 1 1 2 2 1 1 0 0 0 0 0 0 0 0 0 0 0 0 0 0 0 0 0 0 0 0 0 0 0 0 0 0
0 0 0 0 0 1 1 1 1 1 1 1 1 1 2 2 2 1 1 0 0 0 0 0 0 0 0 0 0 0 0 0 0 0 0 0 0 0 0 0 0 0 0 0
0 0 0 0 0 0 0 0 1 1 1 1 1 1 1 2 3 2 1 1 0 0 0 0 0 0 0 0 0 0 0 0 0 0 0 0 0 0 0 0 0 0 0 0
0 0 0 0 0 0 0 0 0 0 0 0 0 0 0 1 3 3 2 1 0 0 0 0 0 0 0 0 0 0 0 0 0 0 0 0 0 0 0 0 0 0 0 0
0 0 0 0 0 0 0 0 0 0 0 0 0 0 0 1 2 3 2 1 0 0 0 0 0 0 0 0 0 0 0 0 0 0 0 0 0 0 0 0 0 0 0 0
0 0 0 0 0 0 0 0 0 0 0 0 0 0 0 1 2 2 1 0 0 0 0 0 0 0 0 0 0 0 0 0 0 0 0 0 0 0 0 0 0 0 0 0
0 0 0 0 0 0 0 0 0 0 0 0 0 0 0 1 1 2 1 0 0 0 0 0 0 0 0 0 0 0 0 0 0 0 0 0 0 0 0 0 0 0 0 0
0 0 0 0 0 0 0 0 0 0 0 0 0 0 0 1 1 1 0 0 0 0 0 0 0 0 0 0 0 0 0 0 0 0 0 0 0 0 0 0 0 0 0 0

GEFSNGP_con_maxscp_192.txt.gz
SCP
0 0 0 0 0 0 0 0 0 0 0 1 1 2 3 4 4 3 3 3 3 4 6 7 6 4 3 4 5 7 7 7 6 5 4 4 4 5 4 4 5 4 4 3
0 0 0 0 0 0 0 0 0 0 1 1 2 2 3 4 3 3 3 3 3 4 5 6 6 4 4 5 7 8 8 7 6 5 4 5 5 5 5 4 4 4 4 3
0 0 0 0 0 0 0 0 1 1 1 2 2 2 3 3 3 3 3 3 4 4 5 5 5 5 6 8 9 9 8 7 5 5 5 6 6 6 5 5 5 4 4 4
0 0 0 0 1 1 1 1 2 2 2 2 2 2 3 3 3 3 3 4 4 5 5 5 5 5 7 9 9 9 7 6 5 5 6 6 6 6 6 6 6 5 4 4
0 0 0 1 1 1 2 2 3 4 4 3 2 2 3 3 4 4 5 5 5 5 5 5 5 5 6 8 9 9 8 6 5 5 5 5 6 7 7 7 7 6 5 4
0 0 0 1 1 2 2 2 4 5 5 4 3 3 3 4 5 6 6 6 5 6 6 6 5 5 6 8 10 11 9 7 5 4 4 5 6 7 8 7 7 6 5 4
0 0 1 1 2 2 2 2 4 4 5 5 4 4 4 4 5 7 8 6 5 6 6 6 5 5 5 7 9 9 8 6 5 4 4 5 6 7 7 7 7 6 5 4
1 1 1 2 3 3 3 3 4 4 4 5 5 4 5 5 6 7 7 6 6 6 6 6 6 6 6 7 7 7 6 5 5 4 4 5 6 7 7 7 7 6 4 3
3 3 3 3 4 4 4 4 4 4 4 5 5 5 5 5 5 6 7 8 9 9 8 7 7 7 7 7 6 5 4 4 5 5 4 5 6 7 7 6 5 5 3 2
6 5 4 4 4 5 5 5 5 4 4 4 4 5 5 5 5 6 7 9 11 11 10 10 9 8 7 6 5 5 4 4 4 4 4 5 6 6 5 4 4 3 2 1
8 6 5 4 5 5 6 5 5 5 5 4 4 4 4 5 5 6 6 8 9 10 10 10 9 7 5 4 4 3 3 3 3 4 4 4 4 4 3 2 2 1 1 1
8 6 5 4 5 6 6 6 6 5 5 4 4 4 4 5 6 6 6 6 6 7 7 7 6 5 4 3 2 2 2 2 3 3 3 4 3 2 1 1 1 0 0 0
7 6 6 5 6 7 7 6 6 6 5 5 5 5 5 6 7 7 6 5 6 6 6 5 4 4 3 2 2 2 2 2 2 2 3 3 3 2 1 0 0 0 0 0
6 6 6 6 5 6 6 6 6 6 5 5 5 5 5 6 6 5 5 5 6 6 5 4 4 4 3 2 2 2 2 2 2 2 2 2 2 2 1 0 0 0 0 0
4 4 5 5 4 4 5 5 5 5 4 5 5 5 5 5 5 4 4 5 5 5 4 3 3 3 3 2 1 1 1 1 1 1 2 2 2 1 0 0 0 0 0 0
3 3 3 4 3 3 4 4 5 5 4 5 6 6 5 5 4 4 4 4 4 4 3 2 2 2 2 1 1 1 1 1 1 1 1 1 1 0 0 0 0 0 0 0
2 2 2 2 2 2 3 3 4 5 5 5 6 6 5 4 4 4 4 4 3 3 3 2 2 1 1 1 1 1 1 1 0 0 0 0 0 0 0 0 0 0 0 0
1 1 1 1 1 1 2 2 3 4 5 5 6 6 5 5 5 4 4 4 3 3 3 2 1 1 1 1 1 1 1 1 0 0 0 0 0 0 0 0 0 0 0 0
1 1 1 1 1 1 1 2 3 3 4 4 5 6 6 6 5 5 5 4 4 4 3 2 1 1 1 1 1 1 1 1 1 0 0 0 0 0 0 0 0 0 0 0
1 1 1 1 1 1 1 1 2 2 3 3 5 7 7 5 5 5 5 4 5 4 3 2 1 1 1 1 0 1 1 1 1 1 0 0 0 0 0 0 0 0 0 0
1 1 1 1 1 1 1 1 1 1 2 2 4 6 6 5 4 4 4 4 4 4 3 2 1 1 1 0 0 1 1 1 1 1 0 0 0 0 0 0 0 0 0 0
1 1 1 1 1 1 1 1 1 1 1 2 2 3 4 4 3 3 3 3 2 2 2 1 1 1 0 0 0 1 1 1 1 1 0 0 0 0 0 0 0 0 0 0
1 1 1 1 1 1 1 1 1 1 1 2 2 2 2 3 2 2 2 1 1 1 1 1 1 0 0 0 0 1 1 1 1 0 0 0 0 0 0 0 0 0 0 0
1 1 1 1 1 1 1 1 1 1 1 2 1 1 2 2 2 1 1 1 0 0 1 1 0 0 0 0 0 0 0 0 0 0 0 0 0 0 0 0 0 0 0 0
1 1 1 1 0 1 1 1 1 1 1 1 1 1 1 2 1 1 1 0 0 0 1 1 0 0 0 0 0 0 0 0 0 0 0 0 0 0 0 0 0 0 0 0
1 1 1 0 0 0 1 1 1 0 1 1 1 1 1 1 1 1 1 0 0 0 0 1 0 0 0 0 0 0 0 0 0 0 0 0 0 0 0 0 0 0 0 0
1 0 0 0 0 0 0 1 0 0 0 0 1 1 1 1 1 1 1 1 0 0 0 1 1 0 0 0 0 0 0 0 0 0 0 0 0 0 0 0 0 0 0 0

GEFSNGP_con_maxscp_198.txt.gz
SCP
0 0 0 0 0 0 0 0 0 1 2 3 5 7 8 8 7 7 8 8 8 8 9 11 13 12 9 7 7 7 7 7 8 10 11 9 6 5 6 7 7 7 7 7
0 0 0 0 0 0 0 0 0 1 2 3 5 8 10 9 9 9 9 10 10 9 9 11 12 12 10 8 8 9 8 8 9 11 11 8 6 6 7 7 7 7 7 7
0 0 0 0 0 0 0 0 0 1 3 4 8 13 16 14 11 10 10 12 14 12 10 10 11 11 10 9 10 10 10 10 10 10 8 6 5 6 7 8 8 8 8 8
0 0 0 1 1 1 1 1 2 4 5 6 9 16 20 17 12 9 8 11 14 14 11 10 10 10 10 10 10 10 9 8 7 7 6 5 4 5 7 8 9 9 10 10
0 0 0 1 2 3 3 3 5 7 8 8 8 10 13 13 10 8 8 10 12 13 11 10 9 9 9 9 8 8 7 6 5 5 5 5 4 5 7 9 10 11 11 11
1 1 1 2 3 3 3 3 5 7 9 9 7 6 7 9 10 9 9 10 11 11 10 10 8 8 7 7 6 6 6 5 5 5 5 5 5 6 8 10 11 11 12 12
1 1 2 3 4 4 4 4 5 6 8 9 8 7 8 9 11 11 10 10 10 10 10 10 9 8 7 6 6 6 6 6 6 6 6 6 6 7 9 10 11 11 11 11
1 2 3 6 7 6 6 6 7 7 8 8 8 8 9 10 11 11 10 9 10 10 10 9 9 9 8 7 6 6 6 6 7 7 7 7 7 7 9 9 9 9 9 9
3 3 6 9 11 9 8 7 8 8 8 8 8 10 10 10 10 10 9 9 9 9 9 10 11 10 9 9 8 8 8 8 8 9 9 8 6 5 6 7 7 7 7 7
6 6 8 10 12 11 8 7 8 8 8 9 11 12 12 10 10 10 9 9 9 9 9 10 12 12 11 11 10 10 9 9 9 9 10 8 6 4 4 4 5 6 6 6
9 10 9 9 11 12 10 9 8 8 9 11 12 13 12 11 11 10 10 10 10 9 8 9 10 11 11 11 11 10 10 9 9 9 10 8 6 4 4 3 3 3 3 3
11 12 12 11 11 12 12 11 11 11 10 11 11 11 10 11 11 11 11 11 10 9 8 8 8 9 9 9 9 9 9 9 8 8 8 7 5 4 3 1 1 1 1 1
13 14 14 12 12 12 13 13 13 13 12 10 9 8 9 11 12 12 11 11 10 9 9 9 9 8 8 8 8 8 8 7 7 6 6 5 4 4 3 2 1 0 0 0
15 15 14 12 10 11 12 13 12 11 9 8 7 7 9 11 13 13 12 12 12 12 11 9 9 9 9 8 7 6 6 6 5 5 4 4 4 4 3 3 2 1 0 0
13 12 10 9 9 9 10 10 9 8 6 6 7 8 10 12 14 15 15 15 15 14 12 10 10 10 9 8 7 6 5 5 5 5 4 4 3 3 3 2 2 1 0 0
8 7 7 7 8 8 8 7 6 6 6 7 9 10 10 12 14 16 17 17 16 14 12 11 10 10 9 8 6 5 5 4 4 4 4 3 2 2 2 1 1 1 0 0
5 5 6 7 7 7 7 6 6 6 7 8 10 10 10 11 13 14 15 15 14 13 11 10 10 10 9 8 7 5 4 4 4 4 4 3 2 2 1 1 1 1 0 0
3 4 5 5 6 6 6 6 6 6 6 6 7 8 9 10 10 10 10 10 10 9 8 8 8 8 8 8 7 6 4 4 3 3 4 3 2 2 2 1 1 1 0 0
3 3 3 4 4 4 5 5 6 6 5 4 4 5 6 7 7 7 7 7 7 7 6 5 5 6 7 7 7 6 5 3 3 3 3 3 2 2 2 1 1 1 0 0
2 3 3 3 3 4 4 5 5 5 5 4 4 4 4 4 4 5 5 5 6 6 5 4 4 4 5 5 6 6 5 3 3 2 2 2 2 1 1 1 1 1 1 0
2 2 3 3 3 3 4 4 5 5 5 4 3 3 3 3 3 4 4 5 5 5 4 4 3 4 4 4 5 5 5 4 3 3 2 1 1 1 1 1 1 1 1 1
1 1 2 2 3 3 3 3 4 4 4 3 2 2 2 2 2 3 3 3 4 4 3 3 3 3 3 4 4 5 5 4 4 3 2 1 1 1 1 1 1 1 1 1
1 1 2 2 2 2 2 2 2 2 2 2 2 2 2 1 1 2 2 2 2 2 2 3 2 2 2 3 4 5 5 4 4 3 1 1 1 1 1 1 1 1 2 2
2 2 2 2 2 1 1 1 1 1 1 2 2 2 1 1 1 1 2 2 1 1 2 1 1 1 1 2 3 4 4 4 3 2 1 1 1 1 1 1 1 1 1 2
3 2 2 2 2 1 1 1 1 1 1 1 2 1 1 1 1 2 2 1 1 1 1 1 0 0 1 1 2 3 3 3 2 1 1 1 1 1 1 1 1 1 1 1
3 2 2 2 1 1 0 0 1 1 1 1 1 1 1 2 2 2 2 1 1 1 1 1 1 1 1 1 1 2 2 2 1 1 1 0 0 0 0 1 1 1 1 1
2 2 1 1 1 0 0 0 1 1 1 1 2 2 2 2 2 2 2 2 1 1 1 1 1 1 1 1 1 1 2 2 1 1 1 0 0 0 0 0 1 1 1 1

GEFSNGP_con_maxscp_204.txt.gz
SCP
0 0 0 0 0 1 1 2 1 1 2 2 3 4 5 8 13 17 17 13 9 8 8 7 6 5 5 5 6 6 7 6 6 5 5 4 4 3 2 1 1 2 2 2
0 0 0 0 1 1 1 2 2 2 2 3 3 5 7 10 14 17 17 14 10 9 8 7 6 5 5 5 6 6 6 7 7 7 5 5 4 2 1 1 2 2 2 2
0 0 0 0 1 1 1 2 3 3 3 4 5 8 11 12 13 14 13 11 10 10 8 7 7 6 6 5 5 5 5 7 8 7 5 4 3 2 1 1 2 2 2 2
0 0 0 1 1 2 2 2 3 3 4 6 9 12 14 14 12 9 8 7 8 9 8 8 8 7 7 6 5 5 5 5 5 5 3 3 2 2 1 1 1 1 1 1
0 0 0 1 2 3 3 3 4 4 6 9 13 16 15 12 10 8 6 7 7 8 9 9 9 9 8 8 6 5 4 3 3 3 3 2 2 2 2 1 1 1 1 2
0 0 1 2 3 3 3 4 5 6 6 9 13 15 12 10 9 7 7 8 9 9 9 10 9 9 9 8 7 6 5 4 3 3 3 3 2 2 2 2 2 2 2 3
0 1 1 2 4 3 3 5 6 7 7 8 11 13 12 12 11 10 9 10 11 11 11 11 10 9 8 7 7 6 5 4 4 3 3 3 3 2 2 2 2 3 3 3
1 1 2 3 4 4 3 5 7 8 8 9 13 16 17 16 15 13 12 12 12 12 12 11 10 8 7 7 6 6 6 5 4 4 4 3 3 3 2 2 3 3 3 3
2 3 3 4 4 4 4 5 7 10 10 11 15 19 21 21 19 16 14 12 11 10 10 10 9 8 7 7 6 6 5 5 5 4 4 4 4 3 2 2 2 3 3 2
4 4 4 4 4 4 4 5 7 9 10 12 14 17 20 21 19 16 13 11 9 8 8 7 6 6 6 6 6 5 5 4 4 4 5 5 4 2 1 1 1 1 1 1
5 5 5 6 5 4 4 5 6 8 10 12 14 16 18 19 17 15 13 10 9 8 7 5 5 4 4 4 4 4 4 3 3 4 4 4 3 1 1 0 0 0 0 0
5 6 9 10 10 9 8 8 9 10 12 14 16 17 17 16 14 13 11 10 10 9 7 6 6 5 4 4 4 4 3 3 3 3 3 2 2 1 1 0 0 0 0 0
10 13 15 16 17 18 18 17 16 16 15 16 16 16 15 14 12 10 9 9 10 10 9 9 8 7 6 5 4 4 4 3 3 3 3 2 2 2 1 1 0 0 0 0
19 22 21 19 21 24 23 21 20 18 15 14 14 13 12 11 10 8 8 9 10 11 12 13 12 11 9 7 5 5 4 4 4 4 3 3 3 2 2 1 0 0 0 0
25 25 22 19 20 23 22 19 17 14 12 11 11 10 9 8 7 6 8 10 13 15 17 17 16 15 13 10 7 6 5 4 4 4 4 3 3 2 2 1 0 0 0 0
24 24 21 17 16 17 17 15 12 10 9 8 8 7 7 6 5 7 10 12 15 17 19 19 18 18 16 13 10 8 6 5 4 4 4 3 2 2 1 1 0 0 0 0
22 22 19 15 13 12 11 10 9 8 7 6 6 6 6 6 6 8 10 13 15 16 16 16 17 18 17 14 12 10 8 6 4 3 3 2 2 1 1 1 1 0 0 0
20 18 16 12 10 10 9 8 8 7 6 5 5 5 6 6 6 7 9 11 13 13 13 13 15 17 16 15 14 12 9 7 5 3 2 2 1 1 1 1 1 1 1 0
13 12 10 8 8 9 10 10 9 8 6 5 4 5 5 5 5 5 6 8 9 10 11 11 13 15 15 15 14 12 9 7 5 3 2 1 1 1 1 1 1 1 1 1
5 5 4 4 4 6 9 10 10 9 7 5 5 4 4 4 4 4 4 5 6 6 7 8 10 12 13 13 12 10 8 6 5 4 3 2 1 1 1 1 1 1 1 1
1 1 1 1 2 3 5 8 9 9 7 7 6 5 5 4 4 3 3 3 3 4 4 5 6 8 9 9 8 8 7 6 5 4 3 2 1 0 0 0 1 1 1 1
0 0 1 1 1 1 2 5 6 6 6 7 6 6 5 4 3 3 2 2 2 2 2 3 4 4 4 5 5 5 6 6 5 4 3 3 1 1 0 0 0 0 0 0
1 1 1 1 1 1 1 2 3 3 3 4 4 3 3 2 2 2 2 1 1 1 2 2 2 2 2 2 3 3 4 5 4 4 3 3 2 1 0 0 0 0 0 0
1 1 1 1 1 0 0 0 1 1 1 1 1 1 1 1 1 1 1 1 1 1 1 2 2 2 1 2 2 2 3 3 3 3 3 3 2 1 1 0 0 0 0 0
1 1 1 1 0 0 0 0 0 0 0 0 0 0 0 0 0 1 0 0 1 1 1 1 1 1 1 1 2 2 2 2 2 2 2 3 2 1 0 0 0 0 0 0
1 1 0 0 0 0 0 0 0 0 0 0 0 0 0 0 0 0 0 0 0 0 0 0 0 1 1 1 2 2 2 2 2 2 2 2 2 1 0 0 0 0 0 0
1 1 0 0 0 0 0 0 0 0 0 0 0 0 0 0 0 0 0 0 0 0 0 0 0 0 1 1 2 2 2 2 1 2 2 1 1 1 0 0 0 0 0 0

GEFSNGP_con_maxscp_210.txt.gz
SCP
0 0 0 0 1 1 1 1 1 1 1 1 1 1 2 2 3 3 3 3 3 2 2 2 3 4 4 3 3 3 3 3 3 4 4 4 4 4 4 3 1 0 0 0
0 0 0 1 1 1 1 1 1 1 1 1 1 1 2 2 3 4 4 4 3 2 2 3 3 4 4 3 3 3 3 3 3 3 4 4 5 4 4 2 1 0 0 1
0 0 0 1 1 1 1 1 1 1 2 2 2 2 2 2 3 4 5 5 4 3 3 3 3 4 4 4 4 4 4 3 3 2 3 3 4 4 2 1 1 1 1 1
0 0 0 1 1 1 1 2 2 2 2 3 3 3 3 3 3 4 5 6 5 4 3 3 3 3 4 5 5 5 4 4 3 2 2 2 3 2 1 1 1 1 1 1
0 0 0 1 1 1 1 2 2 3 4 4 4 4 3 4 4 5 6 6 6 5 4 4 4 4 4 5 5 6 5 5 4 3 2 2 2 2 1 1 1 1 1 1
0 0 1 1 1 2 2 2 3 4 4 4 4 4 3 4 5 6 6 6 6 5 5 5 5 5 5 5 6 7 7 5 4 3 2 1 1 2 2 2 1 1 1 1
0 1 1 1 1 2 2 2 3 4 4 4 4 4 3 4 5 6 6 6 5 5 6 5 5 5 5 5 6 7 6 5 4 3 2 1 1 2 2 2 1 0 0 1
0 1 1 1 1 1 1 2 3 4 4 4 4 4 4 4 4 5 6 6 5 5 5 5 5 5 5 5 5 6 6 5 4 3 4 2 2 2 2 2 1 0 0 1
1 1 1 1 2 2 1 2 3 4 4 5 5 5 5 5 5 5 6 6 5 5 5 6 5 5 5 5 5 5 5 5 4 4 4 3 2 2 2 1 1 0 0 1
3 3 2 2 2 2 2 3 3 4 5 6 6 6 5 5 5 6 7 7 7 6 6 6 5 5 5 5 5 5 4 4 3 3 3 3 3 2 1 1 1 0 0 0
3 3 2 2 2 3 3 3 4 4 5 5 6 6 5 5 6 8 9 9 8 6 6 5 4 5 5 5 4 4 4 3 3 2 2 2 2 2 1 1 1 0 0 0
3 2 2 1 2 2 3 3 3 3 3 4 4 5 5 6 7 9 10 10 8 7 6 4 4 5 5 5 4 4 3 3 2 2 2 2 1 1 1 1 0 0 0 0
1 1 1 1 1 2 3 4 4 4 3 2 3 4 5 7 8 10 11 10 9 7 6 4 4 4 5 4 4 3 3 3 2 2 2 2 2 1 1 1 1 0 0 0
0 1 1 1 2 2 3 5 8 7 5 4 4 4 6 8 9 9 10 10 10 8 6 4 4 4 4 4 3 3 3 3 3 2 2 2 2 2 2 2 1 1 0 0
1 1 1 2 2 3 3 6 10 11 9 7 6 7 8 8 8 8 9 9 8 7 5 4 4 4 5 4 3 3 3 3 3 3 3 2 2 2 2 3 3 2 2 1
2 2 3 3 3 3 4 5 9 11 11 9 8 8 8 8 8 8 8 8 6 5 5 5 5 5 5 4 4 4 4 4 4 3 3 3 3 3 3 4 4 4 3 2
3 4 4 3 3 3 3 5 7 10 11 10 8 7 8 8 8 8 8 7 5 5 5 6 6 6 5 4 4 5 5 4 4 4 3 3 4 4 4 4 4 4 3 1
3 4 4 4 3 2 3 6 9 11 11 9 7 6 6 7 7 8 7 6 5 5 5 6 6 6 6 5 5 6 6 5 4 4 3 3 3 4 4 4 4 3 1 0
3 3 4 3 3 2 4 7 9 10 9 8 7 6 5 5 6 6 5 5 4 5 5 5 5 5 6 6 6 7 7 6 5 4 3 3 2 2 2 2 2 1 0 0
2 3 3 2 2 2 4 6 7 7 6 6 5 5 4 4 4 4 4 3 3 3 5 6 6 6 6 6 6 7 7 6 5 4 3 3 2 1 1 0 0 0 0 0
2 2 2 2 2 2 3 4 4 4 4 4 4 4 3 3 3 3 3 2 2 3 4 6 7 6 6 6 6 7 7 6 5 3 3 4 3 2 1 0 0 0 0 0
1 1 1 1 1 2 2 2 2 2 2 2 3 3 3 3 2 2 2 2 2 2 3 4 5 4 4 4 4 6 7 6 4 4 4 4 4 3 2 1 0 0 0 0
0 0 0 1 1 1 1 1 1 1 1 2 2 3 4 4 3 2 2 2 1 1 2 2 2 1 2 2 3 4 5 5 4 3 3 3 4 4 2 1 0 0 0 0
0 0 0 0 0 0 0 0 1 1 1 1 2 3 3 3 3 3 2 2 1 1 1 1 0 0 1 1 1 2 3 3 2 2 2 2 3 4 3 2 1 0 0 0
0 0 0 0 0 0 0 0 0 1 1 1 1 1 2 2 2 2 2 1 1 1 1 0 0 0 0 0 0 1 1 1 1 1 2 2 3 3 3 2 1 1 0 0
0 0 0 0 0 0 0 0 0 0 0 0 0 0 0 0 1 1 1 1 0 0 0 0 0 0 0 0 0 0 0 1 1 1 1 2 2 3 3 3 2 1 0 0
0 0 0 0 0 0 0 0 0 0 0 0 0 0 0 0 0 0 0 0 0 0 0 0 0 0 0 0 0 0 0 0 0 1 1 2 2 2 2 2 2 1 1 0

GEFSNGP_con_maxscp_216.txt.gz
SCP
0 0 0 0 0 0 1 1 1 1 2 2 2 2 2 2 2 2 3 3 4 4 5 5 6 6 7 6 5 4 4 4 4 4 3 3 4 4 4 5 5 4 3 2
0 0 0 0 0 1 1 1 1 1 2 2 2 2 2 2 2 3 3 3 4 4 5 6 6 7 8 8 6 5 5 5 6 5 4 4 4 4 4 4 4 3 2 2
0 0 0 1 1 1 1 2 2 2 2 2 2 3 3 3 3 4 4 4 4 4 5 6 8 8 8 8 7 7 7 8 8 7 5 4 5 5 5 4 4 3 2 2
0 0 0 1 1 1 2 2 2 2 2 2 2 3 3 4 5 5 5 5 5 5 6 7 8 9 8 8 8 8 9 10 9 8 6 5 5 6 5 5 4 3 2 2
0 0 1 1 1 2 2 2 2 3 3 2 2 2 3 4 5 6 6 6 6 6 6 7 9 10 9 8 9 9 10 10 9 8 6 5 6 6 6 5 4 3 3 2
0 0 1 1 2 2 2 2 2 3 3 3 3 2 3 4 6 6 7 8 7 6 6 7 9 10 9 8 9 9 9 9 8 8 7 6 6 7 7 6 5 4 3 3
1 1 1 2 2 2 2 2 2 2 3 3 3 3 4 5 6 7 8 8 8 9 9 9 10 9 8 8 8 8 8 8 8 8 7 7 7 8 7 6 5 4 4 4
1 1 2 2 2 3 3 3 3 3 4 4 5 5 5 6 7 7 8 9 11 14 15 12 10 10 9 8 8 8 8 8 7 7 7 7 8 8 8 7 6 6 5 5
1 1 2 2 3 3 4 5 5 5 5 5 6 6 6 6 7 8 9 10 13 16 16 13 9 9 9 9 8 9 9 8 8 8 8 9 9 9 8 7 7 7 7 6
2 2 2 3 4 4 5 6 7 7 6 5 5 6 6 6 6 7 9 10 10 11 11 9 7 7 8 8 8 8 9 9 9 9 10 10 11 11 9 6 6 7 7 6
2 2 3 4 5 6 7 8 8 7 5 4 4 5 6 6 6 7 8 7 7 7 7 7 7 7 8 7 7 7 8 9 9 10 12 12 11 11 8 5 4 4 4 4
3 3 4 6 7 8 8 8 8 6 5 4 4 4 5 6 6 6 6 6 6 6 7 7 7 8 8 7 7 7 7 8 9 11 13 13 11 8 6 4 2 2 2 2
5 5 7 8 9 9 8 8 7 6 5 4 4 4 4 5 5 5 5 6 6 7 7 7 8 8 8 8 8 7 7 7 8 10 12 11 9 6 5 3 2 1 1 1
8 9 10 11 10 8 7 6 6 6 5 5 4 4 4 4 4 4 5 6 6 6 7 7 7 7 8 9 9 8 7 7 8 8 9 8 7 6 5 4 3 2 2 1
11 11 12 11 9 6 4 3 4 4 5 5 4 4 4 4 4 5 6 6 6 6 6 7 7 7 8 9 10 10 9 8 7 7 7 7 7 6 6 5 5 4 4 3
12 11 10 8 6 3 3 3 3 4 4 4 5 5 5 5 5 6 7 7 6 5 6 7 7 7 8 9 10 10 10 8 7 7 8 8 8 7 6 5 5 6 5 4
10 9 7 5 3 2 2 3 4 4 4 6 9 11 10 10 10 10 10 10 9 8 8 8 8 8 9 9 9 9 9 7 7 7 7 7 7 7 6 6 6 6 6 5
6 6 4 3 2 2 2 4 4 4 6 9 13 15 15 16 16 15 14 15 17 16 13 11 9 8 9 8 7 7 7 7 6 6 6 5 5 5 5 5 5 5 5 5
3 3 3 2 2 2 3 3 4 4 5 7 10 12 14 16 15 13 13 16 19 19 15 10 7 6 6 6 5 5 6 6 6 5 4 4 4 4 4 4 4 4 4 4
3 2 2 3 3 3 3 3 3 3 3 4 5 6 8 9 9 8 9 10 12 13 11 8 6 5 4 3 3 4 5 5 4 4 4 3 3 3 3 3 3 3 3 3
3 3 2 3 3 4 4 4 4 3 3 4 4 3 4 5 5 5 6 6 6 7 7 6 6 6 4 3 3 4 5 4 3 3 3 3 3 3 3 3 3 2 2 2
3 3 3 3 3 4 4 4 4 4 5 5 5 5 5 5 5 5 4 4 4 5 5 5 5 5 4 4 4 5 5 5 4 3 3 3 3 3 3 2 2 2 1 1
3 3 3 3 4 4 4 4 5 5 6 6 6 5 5 5 4 4 3 3 3 3 4 5 4 3 3 5 6 6 5 5 5 4 4 4 4 4 3 3 2 2 2 2
3 3 3 4 5 4 4 4 5 5 6 6 6 6 5 5 4 4 3 2 2 2 3 3 2 1 2 5 7 7 6 5 4 5 5 5 4 4 4 4 3 3 3 3
3 3 4 4 4 3 3 2 3 3 4 5 5 5 4 4 4 3 3 2 2 1 2 1 0 1 3 6 7 7 6 5 4 4 4 4 3 3 3 3 4 4 4 4
2 3 3 4 3 2 1 1 1 1 2 2 3 3 2 2 2 2 2 2 1 1 1 1 1 2 5 6 6 6 5 5 4 3 3 3 2 2 2 2 3 3 4 4
2 2 3 3 2 1 1 1 1 1 1 1 1 1 2 1 1 1 1 1 1 1 1 1 1 3 5 6 6 5 5 4 4 3 2 2 2 2 2 2 2 2 3 4

GEFSNGP_con_maxscp_222.txt.gz
SCP
0 0 0 0 0 0 0 0 1 2 3 3 3 3 3 4 4 5 6 6 7 9 10 10 10 11 10 8 8 7 7 6 7 7 8 8 8 7 6 5 4 5 6 7
0 0 0 0 0 0 1 1 1 2 3 3 3 3 4 4 4 4 5 6 8 9 10 10 10 11 11 10 10 9 7 7 7 8 8 8 8 7 6 5 5 5 7 7
0 0 0 0 1 1 2 3 3 3 4 4 3 4 5 5 6 6 6 8 10 12 13 12 11 11 12 12 11 10 8 8 8 8 8 9 9 8 6 6 5 6 7 8
0 0 0 1 2 2 3 4 4 4 4 4 5 6 6 7 8 9 10 11 13 14 14 13 12 12 13 14 13 11 9 8 9 9 9 10 9 8 8 8 7 7 7 8
0 0 1 2 4 4 4 4 5 5 5 6 8 7 7 7 8 9 11 13 12 12 12 11 11 12 14 15 14 11 10 9 10 10 10 10 10 11 11 10 9 8 7 7
1 1 2 3 5 5 4 5 7 10 10 9 9 8 7 9 10 10 10 10 10 9 9 10 11 15 17 17 15 13 12 11 10 10 10 11 13 14 13 11 10 8 9 11
1 1 2 3 4 4 4 5 8 12 14 13 10 8 9 11 13 11 9 8 8 9 10 12 15 20 23 21 18 15 14 12 11 10 10 12 15 15 13 11 10 9 11 16
1 1 2 3 4 4 5 6 7 9 11 12 11 10 10 11 12 11 10 8 9 11 14 17 20 25 27 24 20 15 13 13 12 11 11 12 14 13 11 11 12 10 10 12
2 2 3 4 4 5 6 7 8 7 7 9 10 10 10 11 12 12 12 12 13 16 18 19 20 22 23 21 18 15 14 16 16 14 12 12 11 11 11 12 12 11 9 8
3 3 4 4 4 5 6 7 8 8 8 9 10 9 10 12 13 14 14 14 16 18 19 19 18 17 15 15 16 16 17 18 18 15 13 12 10 9 10 11 11 11 11 11
4 3 3 3 4 5 6 6 7 10 10 10 9 9 10 13 15 15 14 15 16 17 19 20 18 16 14 15 17 17 16 16 15 13 12 11 9 9 8 8 8 9 10 10
4 3 3 3 4 5 6 6 7 10 12 12 13 14 15 17 18 16 15 17 19 20 22 23 22 19 18 17 18 18 16 13 11 10 10 10 9 9 7 6 5 5 6 6
8 8 7 5 4 4 7 8 8 9 11 15 19 21 21 21 19 17 17 19 22 24 25 24 22 19 18 17 18 19 17 13 11 10 9 8 8 8 7 5 4 3 2 2
13 14 12 8 5 5 8 9 9 10 11 14 17 19 19 18 16 15 15 17 19 20 20 19 17 15 13 13 15 17 17 15 13 11 9 7 7 6 6 5 5 4 3 1
11 13 13 9 7 8 10 10 10 10 10 10 11 11 11 11 11 11 11 12 12 11 11 11 10 9 8 8 10 13 15 15 14 13 11 8 6 5 5 4 4 5 4 3
5 7 9 8 8 10 11 11 10 9 7 7 7 8 8 8 8 8 8 8 7 7 7 7 6 6 6 6 7 9 11 12 14 14 13 10 8 5 4 3 3 4 5 4
3 5 7 7 7 9 11 10 9 7 6 5 6 6 6 6 6 6 6 5 5 5 5 6 5 5 5 6 5 6 9 10 12 14 14 12 9 6 3 3 3 4 4 4
3 5 7 7 7 8 8 8 6 5 5 5 5 5 5 5 6 7 7 7 7 7 6 5 4 4 5 6 6 7 9 10 11 12 13 12 9 6 4 3 3 4 4 3
3 5 6 7 7 6 6 5 5 4 4 5 5 5 5 6 8 9 10 10 9 8 8 6 5 5 6 6 7 8 9 9 10 11 12 10 8 6 4 3 3 3 3 3
4 5 5 5 5 5 4 4 4 4 4 4 4 4 5 6 8 9 10 10 9 8 8 8 7 7 7 7 8 9 9 8 8 9 10 9 7 6 4 3 3 2 2 2
3 4 4 5 5 6 6 5 4 4 4 3 3 3 4 4 5 6 7 7 7 6 7 8 8 8 7 7 7 7 8 7 7 7 8 8 7 6 5 4 2 2 2 2
4 4 5 6 8 8 7 6 5 4 4 4 4 4 4 4 4 4 5 5 4 4 5 6 6 6 6 6 6 6 6 6 6 6 7 7 6 6 5 4 3 3 2 2
5 6 7 8 8 8 7 5 5 5 5 4 4 4 4 4 4 3 3 3 3 2 3 3 4 3 4 4 5 5 6 6 5 5 5 5 5 4 4 4 4 3 3 3
5 6 6 6 6 6 5 5 4 4 4 4 4 4 3 3 3 3 2 2 2 2 2 2 2 2 3 4 4 5 5 4 4 4 5 5 5 4 4 4 4 4 3 3
4 4 4 4 4 4 4 3 3 3 3 3 3 3 2 2 2 3 3 2 1 1 2 2 2 1 2 3 4 5 5 5 5 5 6 5 4 4 4 4 4 4 4 4
4 4 4 3 3 3 2 2 2 2 2 2 2 2 2 2 2 3 3 2 1 1 2 3 2 2 2 3 4 5 5 6 6 6 7 7 5 4 4 5 6 5 4 4
5 4 4 3 3 2 2 2 2 2 2 2 2 1 1 2 2 2 2 2 2 3 3 4 3 2 2 3 3 4 5 6 7 7 8 8 6 5 6 7 7 6 5 4

GEFSNGP_con_maxscp_228.txt.gz
SCP
0 0 0 0 1 1 1 1 1 1 1 2 3 4 4 4 5 6 6 6 6 6 5 5 6 7 7 6 5 5 6 6 5 4 4 4 3 3 3 3 3 2 2 2
0 0 1 1 1 2 2 2 1 2 2 3 4 5 6 7 9 10 11 10 9 9 7 6 6 7 7 6 5 5 5 5 5 5 5 4 3 3 3 3 3 3 3 3
0 1 1 1 1 2 2 2 3 3 3 4 5 6 8 10 11 11 12 12 12 11 10 8 6 6 7 6 6 7 6 6 6 6 6 6 4 4 3 4 4 3 3 2
0 1 1 1 1 2 2 3 4 5 6 6 6 6 8 9 10 10 9 9 10 10 9 8 6 6 6 7 8 8 8 7 7 8 8 8 7 5 4 4 5 4 3 2
0 0 1 1 2 2 2 3 5 6 6 7 7 7 8 8 9 10 10 10 9 9 8 7 6 6 7 7 8 8 8 8 8 8 8 11 12 9 6 6 5 4 3 3
0 0 1 1 2 2 2 3 5 6 6 6 7 8 9 10 10 11 12 12 12 11 10 9 8 8 8 8 8 8 9 8 8 8 7 11 16 12 8 7 6 4 4 3
0 0 1 1 2 2 2 3 5 5 5 6 7 9 11 13 13 12 12 12 12 12 12 11 10 10 9 9 9 10 10 10 9 8 6 8 11 10 8 7 6 4 4 3
0 0 1 1 2 2 3 4 6 6 6 7 9 11 12 14 15 15 14 13 12 12 12 12 12 11 11 12 11 12 13 13 10 8 6 5 6 7 7 6 5 4 4 3
1 1 1 1 3 4 4 6 7 7 8 8 9 11 13 13 14 15 15 15 14 13 13 13 13 13 13 13 13 13 14 14 11 8 6 5 6 6 6 5 4 4 4 4
1 1 2 2 3 4 4 5 7 7 7 7 8 10 12 13 14 15 15 14 13 13 13 13 13 13 13 12 11 11 13 14 11 8 6 5 5 6 6 6 5 5 4 4
3 3 3 3 3 3 3 3 5 6 5 6 8 11 12 13 14 15 13 10 9 10 11 12 12 12 11 9 8 8 11 13 12 8 7 6 5 5 5 5 5 4 4 4
4 4 4 3 3 3 4 4 5 5 5 7 11 14 15 15 15 14 11 8 7 7 9 10 11 10 9 7 7 7 9 12 12 9 7 6 5 5 4 3 3 3 3 2
3 3 3 4 5 7 8 8 7 7 7 10 15 19 20 20 18 15 11 8 7 8 9 9 9 8 7 6 6 6 8 10 12 11 8 6 5 5 4 3 2 1 1 1
2 2 2 5 8 10 10 9 9 9 11 17 22 24 25 25 23 20 16 13 12 12 13 12 10 8 7 7 6 7 7 9 11 11 9 6 6 5 5 3 2 1 1 1
2 2 2 4 8 9 8 8 19 28 25 20 24 27 28 27 25 24 21 19 18 18 17 15 13 11 10 8 7 8 8 8 10 11 10 8 7 6 6 5 4 2 1 1
3 2 2 3 5 6 6 6 26 48 32 16 19 23 24 23 21 21 20 19 18 17 15 14 13 11 10 8 7 8 8 8 8 11 12 10 8 7 7 6 5 3 2 1
3 3 3 3 4 4 5 7 20 30 24 13 15 17 18 17 15 13 13 14 14 13 11 10 9 8 7 6 6 7 9 9 9 11 14 13 10 9 9 8 6 4 3 2
2 2 2 3 3 4 6 10 13 15 15 15 15 14 13 11 9 8 7 8 9 9 8 7 6 6 6 5 5 6 9 10 10 11 14 14 12 10 9 8 6 4 3 2
1 1 3 5 7 9 12 17 20 20 18 15 13 11 9 7 6 4 3 3 3 4 4 3 3 4 4 4 4 5 7 9 8 9 12 13 11 9 8 7 5 4 3 2
1 1 3 9 14 16 19 22 22 20 16 13 10 8 6 4 3 2 1 1 1 1 1 1 1 2 2 2 2 4 5 6 6 6 9 10 9 8 7 6 5 3 3 2
1 1 3 7 12 15 16 17 16 14 11 8 6 4 3 2 1 1 0 0 1 1 1 1 2 2 2 2 2 3 5 5 5 5 6 7 8 9 9 8 6 4 3 2
1 1 2 3 5 6 7 7 6 6 5 4 3 2 1 1 1 0 0 0 0 1 1 2 3 4 4 3 2 3 4 5 5 5 5 6 9 11 11 10 7 5 3 2
1 1 1 2 2 2 2 2 2 2 2 2 1 1 1 1 0 0 0 0 0 0 1 1 2 3 4 4 4 4 4 5 5 5 5 7 9 10 10 9 7 5 3 2
3 2 2 2 2 2 3 3 2 2 2 1 1 1 0 0 0 0 0 0 0 0 0 0 0 1 2 4 4 4 4 4 5 5 5 6 7 7 7 6 5 4 3 2
4 4 3 3 3 3 3 2 2 1 1 1 1 0 0 0 0 0 0 0 0 0 0 0 0 0 1 2 4 3 3 3 4 5 5 5 5 5 5 4 4 3 3 2
6 5 4 4 3 3 2 1 1 0 0 0 0 0 0 0 0 0 0 0 0 0 0 0 0 0 1 2 2 2 2 2 3 4 5 5 5 4 4 4 4 3 3 2
6 5 4 4 3 2 1 1 0 0 0 0 0 0 0 0 0 0 0 0 0 0 0 0 0 1 1 2 2 1 1 2 3 4 5 5 5 5 5 4 4 3 2 2

GEFSNGP_con_maxscp_234.txt.gz
SCP
0 0 1 1 1 1 1 1 1 2 2 1 1 2 2 2 2 2 2 2 2 2 2 2 2 2 3 4 4 4 4 4 4 4 6 6 6 6 6 5 4 3 2 2
1 0 1 1 1 1 2 2 2 2 2 1 1 2 2 2 3 3 2 2 2 2 2 2 2 3 4 5 5 5 4 4 4 4 5 5 5 5 5 4 4 3 2 2
1 1 1 1 1 1 2 2 2 2 2 2 2 2 3 3 3 3 3 3 3 2 2 2 2 3 5 6 6 4 4 3 4 4 4 4 4 4 4 3 3 3 3 2
1 1 0 0 1 1 1 2 2 2 2 2 3 3 3 3 3 4 4 4 3 2 2 2 2 3 5 6 5 4 4 4 4 4 4 4 4 4 4 4 3 3 3 3
1 1 0 0 1 1 1 2 2 3 3 3 3 4 5 4 4 3 4 4 4 3 3 3 3 3 4 6 7 7 6 5 5 5 5 5 4 4 4 4 4 4 3 3
0 0 0 0 0 1 1 2 2 2 3 3 3 4 5 5 4 4 4 4 4 5 5 5 5 4 5 7 10 10 8 6 6 6 6 6 5 4 4 4 4 4 3 3
0 0 0 0 0 1 1 1 1 1 2 3 3 4 5 5 4 4 4 4 4 5 7 7 7 6 8 10 12 10 7 6 6 7 7 6 5 4 4 3 3 3 2 2
0 0 0 0 1 1 1 1 1 2 2 3 4 5 5 4 4 4 3 4 4 6 9 9 8 7 9 11 10 8 6 5 6 7 8 7 6 5 4 3 3 3 2 2
0 0 0 0 1 1 1 1 1 2 3 4 6 5 4 3 3 3 3 4 6 8 10 10 8 7 8 9 8 7 5 5 6 8 8 7 6 5 4 3 3 3 3 3
0 0 1 1 1 1 1 1 2 3 4 5 5 5 4 3 3 3 3 5 7 9 11 10 7 5 5 6 7 6 6 6 6 7 7 6 5 5 4 3 3 3 3 3
0 0 1 1 1 2 1 1 2 3 4 4 4 4 4 3 3 4 4 5 6 8 9 8 6 4 4 5 6 6 6 6 5 6 6 5 5 4 4 3 3 3 3 3
0 1 1 1 2 2 2 2 2 3 4 4 4 4 4 3 3 4 5 5 5 6 7 6 5 5 5 5 6 5 5 5 5 4 4 4 4 4 3 2 1 2 2 2
1 1 2 2 2 2 3 3 4 4 5 5 4 4 3 3 3 4 5 5 5 6 6 6 6 5 5 5 5 5 5 4 5 5 5 5 4 3 2 1 1 1 1 1
2 2 3 3 3 3 3 4 4 5 5 5 4 4 4 3 3 4 4 4 5 5 6 6 5 5 5 4 4 4 4 4 5 6 6 5 4 4 3 2 2 2 2 1
3 3 3 3 3 3 4 4 4 5 6 6 5 4 4 4 4 4 5 5 5 5 5 5 4 4 3 3 3 4 4 4 5 6 6 5 4 4 3 3 4 4 4 3
4 4 4 3 3 3 3 3 4 5 7 7 5 4 4 4 4 4 5 5 5 5 4 4 4 3 2 2 3 3 3 3 3 4 5 5 5 5 4 4 4 5 6 6
4 4 4 3 3 3 2 3 4 5 6 5 4 4 4 4 4 4 5 5 5 5 4 4 3 3 2 2 2 3 3 3 3 4 5 5 6 6 5 4 4 5 6 6
5 5 4 3 3 3 4 4 4 5 4 4 3 4 4 4 4 3 4 4 4 4 4 4 3 3 3 3 3 3 3 3 4 4 5 5 6 7 7 6 5 4 5 5
9 7 6 4 4 5 5 5 4 4 4 4 4 4 4 4 3 3 3 3 3 3 3 2 3 3 3 3 3 4 4 4 4 4 4 5 6 8 8 7 6 4 4 4
9 7 6 5 5 5 4 4 4 4 4 4 3 3 3 3 2 2 2 2 2 1 1 1 1 2 2 2 3 3 3 3 3 3 3 4 6 7 8 8 8 6 4 4
5 4 3 3 3 2 2 2 2 3 3 3 2 2 2 2 1 1 1 1 0 0 0 0 0 1 1 1 1 2 2 2 2 2 2 3 4 6 8 9 9 7 5 4
2 1 1 1 0 0 0 0 1 1 2 1 1 1 1 1 0 0 0 0 0 0 0 0 0 0 0 0 0 0 0 1 1 1 1 2 3 4 6 8 9 8 7 6
0 0 0 0 0 0 0 0 0 0 0 0 0 0 0 0 0 0 0 0 0 0 0 0 0 0 0 0 0 0 0 0 0 0 1 1 2 3 4 6 8 9 8 8
0 0 0 0 0 0 0 0 0 0 0 0 0 0 0 0 0 0 0 0 0 0 0 0 0 0 0 0 0 0 0 0 0 0 1 1 2 2 3 5 7 8 8 8
1 1 0 0 0 0 0 0 0 0 0 0 0 0 0 0 0 0 0 0 0 0 0 0 0 0 0 0 0 0 0 0 0 1 1 1 1 2 3 4 5 6 6 6
2 1 1 0 0 0 0 0 0 0 0 0 0 0 0 0 0 0 0 0 0 0 0 0 0 0 0 0 0 0 0 0 0 0 1 1 1 2 2 3 4 4 4 4
2 2 1 0 0 0 0 0 0 0 0 0 0 0 0 0 0 0 0 0 0 0 0 0 0 0 0 0 0 0 0 0 0 0 0 1 1 1 2 3 3 4 4 4

GEFSNGP_con_maxscp_240.txt.gz
SCP
0 0 0 0 0 0 0 1 1 1 1 2 3 5 5 4 4 4 3 3 4 5 7 8 8 7 7 6 5 5 4 4 4 5 5 5 5 5 5 6 7 8 8 7
0 0 0 0 1 1 1 1 1 1 1 2 4 5 5 5 4 4 4 4 4 6 8 9 9 9 9 8 7 6 6 6 6 6 6 5 5 5 6 7 7 7 7 7
0 1 1 1 1 1 1 1 1 2 2 3 4 6 6 5 5 5 4 4 5 7 8 9 9 11 12 12 10 8 8 10 10 9 7 6 6 6 7 8 8 7 7 6
1 1 1 1 1 1 1 1 2 2 3 4 5 6 5 5 6 5 4 4 5 6 7 8 9 12 15 15 12 9 9 12 13 12 9 8 7 7 8 9 9 8 6 6
1 1 1 1 1 1 1 2 2 2 3 4 5 5 5 5 5 5 5 5 5 5 6 7 10 13 16 16 13 10 10 12 13 12 9 8 8 8 9 10 10 8 6 5
1 1 1 2 2 2 2 2 2 2 3 4 4 5 4 4 5 6 7 7 6 6 6 7 9 11 14 14 12 11 12 12 12 10 8 8 7 8 9 10 10 8 6 6
1 1 2 2 2 2 2 2 3 3 3 3 4 4 4 5 6 7 8 7 7 6 6 6 7 8 10 11 11 12 14 14 12 10 8 8 7 7 9 10 10 9 7 6
1 1 2 2 2 2 3 3 3 3 3 4 5 6 7 9 10 9 8 7 6 6 6 5 5 6 7 9 10 13 16 15 13 11 9 8 7 7 8 9 10 9 8 7
1 1 2 2 2 2 3 3 3 3 3 4 6 8 10 12 13 11 9 8 7 6 6 6 6 6 7 9 11 13 15 15 13 11 10 9 8 7 8 9 9 9 9 8
1 1 2 2 2 3 3 3 3 4 5 6 7 9 10 11 11 10 8 7 6 5 6 6 6 7 8 10 11 12 13 14 13 12 10 9 8 8 7 7 8 8 8 7
2 2 2 2 3 3 3 3 4 5 5 6 6 7 8 8 8 8 8 7 6 6 6 6 7 7 9 11 13 13 13 14 14 13 11 10 9 7 5 5 5 5 6 6
2 2 2 3 3 3 3 3 5 6 5 5 5 6 7 7 7 7 8 9 9 7 6 6 6 7 10 12 14 14 15 16 16 14 11 9 7 5 3 3 2 2 3 3
2 2 2 2 3 3 2 2 4 6 6 6 6 7 7 7 7 7 8 9 10 8 6 5 5 8 10 12 12 12 14 16 16 14 11 8 6 4 3 2 2 1 1 1
1 1 2 2 2 2 2 2 3 5 7 9 9 8 8 7 7 7 8 9 9 9 7 7 7 9 11 11 10 10 11 13 13 12 10 7 5 4 4 3 3 2 2 1
2 2 3 3 3 3 3 3 4 5 6 8 11 11 10 8 8 8 8 8 9 9 9 9 10 10 10 10 10 10 10 9 10 10 9 7 6 5 4 4 4 4 3 2
3 4 5 5 5 4 4 4 5 5 5 7 9 11 11 9 8 8 8 7 8 9 9 9 9 9 9 9 10 11 9 7 7 7 7 7 7 6 5 5 5 5 4 4
4 5 6 6 5 4 4 4 5 5 5 6 7 9 9 8 7 7 7 7 7 8 8 8 8 8 8 8 9 9 7 5 5 5 5 6 7 7 7 6 6 6 6 6
4 4 5 5 4 4 4 3 3 4 4 5 5 6 7 7 5 5 5 6 6 7 7 7 7 7 7 7 6 6 5 4 4 4 5 5 6 6 7 7 8 9 9 9
3 4 4 4 4 4 3 3 3 4 5 5 5 5 5 5 4 4 4 5 6 6 6 6 6 7 7 5 5 4 4 4 4 4 5 5 5 6 7 8 9 10 10 9
3 4 4 4 4 4 3 3 4 6 7 6 5 4 3 3 3 3 4 5 5 5 5 5 5 6 6 5 4 4 4 4 4 4 5 5 6 7 8 8 9 10 9 7
3 3 3 4 4 4 4 4 6 7 7 6 5 3 3 3 3 3 3 4 4 4 4 4 4 4 4 4 4 4 5 5 5 5 6 7 7 8 8 8 8 8 7 6
3 3 3 3 3 4 4 5 6 6 6 4 3 3 2 2 2 3 3 3 3 3 2 2 2 2 2 3 3 3 4 4 5 5 6 7 8 8 8 7 6 6 5 5
2 3 3 3 3 3 4 4 4 4 4 3 2 2 2 2 2 2 2 2 1 1 1 1 1 1 1 2 2 2 2 2 2 3 3 5 5 6 5 5 4 4 4 4
2 2 2 2 2 3 3 3 3 2 2 2 1 1 1 1 1 1 1 1 0 0 0 0 0 0 0 1 1 1 0 0 0 0 1 1 2 2 2 2 2 2 2 3
2 2 2 2 2 2 2 2 2 1 1 1 1 0 0 0 1 1 1 1 0 0 0 0 0 0 0 0 0 0 0 0 0 0 0 0 0 0 1 1 1 1 1 2
2 2 2 2 1 1 1 1 1 0 0 0 0 0 0 0 1 1 1 1 0 0 0 0 0 0 0 0 0 0 0 0 0 0 0 0 0 0 0 0 1 1 1 1
2 2 2 2 1 1 1 0 0 0 0 0 0 0 1 1 1 1 1 0 0 0 0 0 0 0 0 0 0 0 0 0 0 0 0 0 0 0 0 0 1 1 1 1

GEFSNGP_con_maxscp_246.txt.gz
SCP
0 0 0 0 0 0 0 0 1 1 1 2 5 7 8 8 8 9 11 13 14 15 17 18 19 19 17 13 11 12 14 15 15 14 12 11 11 12 13 12 11 10 10 10
0 0 0 0 0 0 0 0 1 1 1 3 7 10 11 10 9 10 12 15 17 19 20 21 21 19 17 14 12 14 16 17 17 15 12 10 10 11 12 13 12 10 10 10
0 0 0 0 0 0 1 1 1 2 3 6 12 15 14 11 10 11 13 15 18 20 21 22 20 17 17 16 14 15 16 17 16 14 11 11 11 10 11 12 12 11 11 11
0 0 0 1 1 1 1 1 2 3 5 12 19 20 15 11 10 11 12 13 15 17 18 18 16 15 16 16 15 15 15 14 13 13 13 13 13 11 10 11 11 11 11 11
0 0 0 1 1 1 1 2 3 5 9 18 23 21 14 10 9 11 12 13 16 18 17 14 13 13 14 14 15 16 16 14 14 15 16 16 16 13 11 11 11 10 10 10
0 0 1 1 1 1 1 3 5 8 13 19 20 17 13 10 11 13 13 14 17 18 16 13 12 13 14 15 17 18 17 15 14 16 17 18 17 14 13 12 12 11 10 9
0 0 1 1 2 2 3 5 7 9 12 14 14 12 12 12 14 15 15 15 16 17 15 13 13 14 16 19 20 20 16 13 13 15 17 18 18 17 16 15 13 11 10 9
1 1 2 3 4 4 6 8 9 10 9 9 9 10 11 14 15 15 15 15 15 14 13 12 12 14 16 19 19 17 14 13 14 16 18 18 20 22 21 17 13 10 9 8
3 3 4 5 5 6 7 9 9 10 9 8 7 8 10 13 13 13 15 15 14 12 12 12 12 12 13 15 15 13 12 13 15 18 20 22 24 25 22 16 11 9 8 8
4 4 5 5 5 6 6 7 7 8 9 9 8 7 8 12 14 14 15 16 14 13 13 14 13 12 12 13 13 12 12 13 15 19 23 26 25 22 17 12 9 8 9 10
5 5 4 4 4 4 4 5 5 6 7 8 11 12 12 15 17 16 16 16 15 14 14 15 15 14 14 14 14 13 14 14 15 19 24 25 20 13 9 7 6 7 9 11
4 4 4 4 3 3 3 4 5 4 4 6 11 20 23 21 19 17 16 15 15 15 15 15 15 15 15 15 15 15 16 16 15 19 25 23 14 6 4 3 4 4 6 7
5 4 4 4 4 4 4 4 5 4 4 4 9 21 31 28 19 15 14 13 13 14 14 14 14 13 12 13 14 16 18 18 17 19 22 18 10 5 4 3 2 2 2 2
5 4 4 4 4 5 5 5 5 4 4 4 7 15 26 29 21 14 12 11 11 11 11 12 12 11 11 12 14 17 18 18 18 18 16 12 8 6 5 4 3 3 2 1
4 4 3 3 4 4 4 5 5 4 3 5 7 11 17 22 22 20 17 14 11 10 10 11 12 12 12 13 15 16 16 15 15 13 10 8 7 6 5 5 5 4 3 2
3 3 3 3 3 3 4 4 4 4 4 5 8 10 12 15 18 23 24 21 17 15 14 13 12 11 12 12 13 13 13 11 10 10 9 9 7 6 5 5 6 5 4 4
2 2 2 3 4 4 5 5 5 4 5 6 7 9 10 10 13 18 21 22 21 20 18 15 13 13 12 11 11 12 11 10 9 9 9 9 8 6 6 6 6 5 5 4
1 1 2 3 5 6 7 6 5 5 6 6 6 7 7 7 8 11 13 14 16 16 17 16 16 16 15 13 13 13 12 11 10 10 10 10 8 7 7 7 7 7 7 7
1 1 2 3 4 6 6 6 6 6 6 5 6 6 6 5 6 7 7 8 9 11 13 15 17 18 17 16 14 14 13 12 11 11 11 10 9 9 8 8 7 8 9 9
2 2 2 3 4 5 6 6 6 6 5 5 5 5 5 5 5 5 5 6 7 9 11 13 15 16 16 14 12 13 12 11 10 11 11 10 9 9 8 7 6 6 7 8
3 4 4 5 5 6 6 6 5 5 4 4 4 4 4 5 4 4 4 5 6 7 9 11 12 12 11 9 8 9 10 9 8 9 9 9 8 8 6 6 6 6 6 6
5 6 7 7 7 7 6 5 4 3 3 3 3 3 4 4 3 3 3 4 4 5 5 7 7 7 5 5 6 7 7 7 7 6 6 7 6 5 4 5 6 7 9 10
7 7 7 7 6 5 4 3 3 2 2 2 2 3 3 2 2 2 2 2 2 2 3 3 3 2 2 3 4 5 5 5 4 3 3 3 3 3 3 3 4 6 8 11
7 6 6 5 4 4 3 3 2 2 2 2 2 2 2 2 2 1 1 1 1 1 1 1 0 0 1 2 2 3 2 2 2 1 1 1 1 1 1 1 2 2 4 5
5 5 4 4 4 3 3 3 2 2 2 2 2 2 2 2 1 1 1 0 0 0 0 0 0 0 0 1 1 1 1 1 1 0 0 0 0 0 0 0 0 0 0 1
5 5 4 4 4 3 3 2 2 2 2 2 2 2 2 1 1 1 1 0 0 0 0 0 0 0 0 0 0 0 0 0 0 0 0 0 0 0 0 0 0 0 0 1
5 5 5 5 4 3 3 2 2 2 2 2 2 1 1 1 1 1 0 0 0 0 0 0 0 0 0 0 0 0 0 0 0 0 0 0 0 0 0 0 0 0 0 0